Time,TemperatureF,DewpointF,PressureIn,WindDirection,WindDirectionDegrees,WindSpeedMPH,WindSpeedGustMPH,Humidity,HourlyPrecipIn,Conditions,Clouds,dailyrainin,SoftwareType,DateUTC
2013-09-10 00:01:00,63.7,42.5,29.71,SSE,162,0.0,0.0,46,0.00,,SKC,0.00,VWS V14.01,2013-09-10 04:01:00,
2013-09-10 00:06:00,64.0,42.9,29.71,SSE,162,0.0,0.0,46,0.00,,SKC,0.00,VWS V14.01,2013-09-10 04:06:00,
2013-09-10 00:11:00,64.2,43.0,29.71,SSE,163,0.0,0.0,46,0.00,,SKC,0.00,VWS V14.01,2013-09-10 04:11:00,
2013-09-10 00:16:00,64.4,43.2,29.71,SSE,163,0.0,0.0,46,0.00,,SKC,0.00,VWS V14.01,2013-09-10 04:16:00,
2013-09-10 00:21:00,64.6,42.8,29.71,WNW,298,0.0,0.0,45,0.00,,SKC,0.00,VWS V14.01,2013-09-10 04:21:00,
2013-09-10 00:26:00,64.6,42.8,29.71,WNW,298,0.0,0.0,45,0.00,,SKC,0.00,VWS V14.01,2013-09-10 04:26:00,
2013-09-10 00:31:00,64.8,43.0,29.71,WNW,298,0.0,0.0,45,0.00,,SKC,0.00,VWS V14.01,2013-09-10 04:31:00,
2013-09-10 00:36:00,64.8,43.0,29.71,WNW,298,0.0,0.0,45,0.00,,SKC,0.00,VWS V14.01,2013-09-10 04:36:00,
2013-09-10 00:41:00,64.8,42.4,29.71,WNW,298,0.0,0.0,44,0.00,,SKC,0.00,VWS V14.01,2013-09-10 04:41:00,
2013-09-10 00:46:00,64.9,42.5,29.71,WNW,288,0.0,0.0,44,0.00,,SKC,0.00,VWS V14.01,2013-09-10 04:46:00,
2013-09-10 00:51:00,64.9,42.5,29.71,WNW,288,0.0,0.0,44,0.00,,SKC,0.00,VWS V14.01,2013-09-10 04:51:00,
2013-09-10 00:56:00,64.9,42.5,29.71,South,176,0.0,0.0,44,0.00,,SKC,0.00,VWS V14.01,2013-09-10 04:56:00,
2013-09-10 01:01:00,64.9,42.5,29.71,South,176,0.0,0.0,44,0.00,,SKC,0.00,VWS V14.01,2013-09-10 05:01:00,
2013-09-10 01:06:00,64.9,42.5,29.68,WNW,296,0.0,0.0,44,0.00,,SKC,0.00,VWS V14.01,2013-09-10 05:06:00,
2013-09-10 01:11:00,65.1,43.3,29.68,East,79,0.0,0.0,45,0.00,,SKC,0.00,VWS V14.01,2013-09-10 05:11:00,
2013-09-10 01:16:00,65.1,43.3,29.68,East,79,0.0,0.0,45,0.00,,SKC,0.00,VWS V14.01,2013-09-10 05:16:00,
2013-09-10 01:21:00,65.1,43.3,29.71,ESE,120,0.0,0.0,45,0.00,,SKC,0.00,VWS V14.01,2013-09-10 05:21:00,
2013-09-10 01:26:00,65.1,43.3,29.71,South,172,0.0,2.7,45,0.00,,SKC,0.00,VWS V14.01,2013-09-10 05:26:00,
2013-09-10 01:31:00,65.1,43.3,29.71,South,172,0.0,0.0,45,0.00,,SKC,0.00,VWS V14.01,2013-09-10 05:31:00,
2013-09-10 01:36:00,65.1,43.3,29.71,South,172,0.0,0.0,45,0.00,,SKC,0.00,VWS V14.01,2013-09-10 05:36:00,
2013-09-10 01:41:00,65.3,43.4,29.71,South,172,0.0,0.0,45,0.00,,SKC,0.00,VWS V14.01,2013-09-10 05:41:00,
2013-09-10 01:46:00,65.3,44.0,29.71,SW,218,0.0,0.0,46,0.00,,SKC,0.00,VWS V14.01,2013-09-10 05:46:00,
2013-09-10 01:51:00,65.5,44.2,29.68,SW,218,0.0,0.0,46,0.00,,SKC,0.00,VWS V14.01,2013-09-10 05:51:00,
2013-09-10 01:56:00,65.5,44.2,29.68,SSW,212,0.0,0.0,46,0.00,,SKC,0.00,VWS V14.01,2013-09-10 05:56:00,
2013-09-10 02:01:00,65.5,44.2,29.68,SSW,212,0.0,0.0,46,0.00,,SKC,0.00,VWS V14.01,2013-09-10 06:01:00,
2013-09-10 02:06:00,65.7,44.9,29.68,SSW,212,0.0,0.0,47,0.00,,SKC,0.00,VWS V14.01,2013-09-10 06:06:00,
2013-09-10 02:11:00,65.7,44.9,29.68,East,92,0.0,0.0,47,0.00,,SKC,0.00,VWS V14.01,2013-09-10 06:11:00,
2013-09-10 02:16:00,65.8,45.1,29.68,ESE,119,0.0,0.0,47,0.00,,SKC,0.00,VWS V14.01,2013-09-10 06:16:00,
2013-09-10 02:21:00,65.8,45.1,29.71,SE,143,0.0,0.0,47,0.00,,SKC,0.00,VWS V14.01,2013-09-10 06:21:00,
2013-09-10 02:26:00,65.8,45.1,29.71,WSW,253,0.0,0.0,47,0.00,,SKC,0.00,VWS V14.01,2013-09-10 06:26:00,
2013-09-10 02:31:00,65.8,45.1,29.71,WSW,253,0.0,0.0,47,0.00,,SKC,0.00,VWS V14.01,2013-09-10 06:31:00,
2013-09-10 02:36:00,65.8,45.1,29.71,WSW,253,0.0,0.0,47,0.00,,SKC,0.00,VWS V14.01,2013-09-10 06:36:00,
2013-09-10 02:41:00,65.8,45.1,29.71,WSW,253,0.0,0.0,47,0.00,,SKC,0.00,VWS V14.01,2013-09-10 06:41:00,
2013-09-10 02:46:00,65.8,45.1,29.71,WSW,253,0.0,0.0,47,0.00,,SKC,0.00,VWS V14.01,2013-09-10 06:46:00,
2013-09-10 02:51:00,66.0,45.8,29.68,SSE,155,0.0,0.0,48,0.00,,SKC,0.00,VWS V14.01,2013-09-10 06:51:00,
2013-09-10 02:56:00,66.0,45.8,29.68,North,353,0.0,0.0,48,0.00,,SKC,0.00,VWS V14.01,2013-09-10 06:56:00,
2013-09-10 03:01:00,66.0,46.3,29.68,WNW,284,0.0,0.0,49,0.00,,SKC,0.00,VWS V14.01,2013-09-10 07:01:00,
2013-09-10 03:06:00,66.0,46.3,29.68,WNW,283,0.0,0.0,49,0.00,,SKC,0.00,VWS V14.01,2013-09-10 07:06:00,
2013-09-10 03:11:00,66.0,46.3,29.68,WNW,284,0.0,0.0,49,0.00,,SKC,0.00,VWS V14.01,2013-09-10 07:11:00,
2013-09-10 03:16:00,66.0,46.9,29.68,WNW,284,0.0,0.0,50,0.00,,SKC,0.00,VWS V14.01,2013-09-10 07:16:00,
2013-09-10 03:21:00,66.0,46.9,29.68,WNW,283,0.0,0.0,50,0.00,,SKC,0.00,VWS V14.01,2013-09-10 07:21:00,
2013-09-10 03:26:00,65.8,47.2,29.68,WNW,283,0.0,0.0,51,0.00,,SKC,0.00,VWS V14.01,2013-09-10 07:26:00,
2013-09-10 03:31:00,65.8,47.2,29.68,WNW,283,0.0,0.0,51,0.00,,SKC,0.00,VWS V14.01,2013-09-10 07:31:00,
2013-09-10 03:36:00,65.8,47.2,29.68,South,185,0.0,0.0,51,0.00,,SKC,0.00,VWS V14.01,2013-09-10 07:36:00,
2013-09-10 03:41:00,65.8,47.7,29.68,South,185,0.0,0.0,52,0.00,,SKC,0.00,VWS V14.01,2013-09-10 07:41:00,
2013-09-10 03:46:00,65.8,47.7,29.68,WNW,285,0.0,0.0,52,0.00,,SKC,0.00,VWS V14.01,2013-09-10 07:46:00,
2013-09-10 03:51:00,65.8,47.7,29.68,WNW,285,0.0,0.0,52,0.00,,SKC,0.00,VWS V14.01,2013-09-10 07:51:00,
2013-09-10 03:56:00,65.8,47.7,29.68,WNW,285,0.0,0.0,52,0.00,,SKC,0.00,VWS V14.01,2013-09-10 07:56:00,
2013-09-10 04:01:00,65.8,48.2,29.68,SSW,207,0.0,0.0,53,0.00,,SKC,0.00,VWS V14.01,2013-09-10 08:01:00,
2013-09-10 04:06:00,65.8,48.2,29.68,SSW,207,0.0,0.0,53,0.00,,SKC,0.00,VWS V14.01,2013-09-10 08:06:00,
2013-09-10 04:11:00,66.0,48.4,29.68,SSW,207,0.0,0.0,53,0.00,,SKC,0.00,VWS V14.01,2013-09-10 08:11:00,
2013-09-10 04:16:00,66.0,48.4,29.68,SSW,207,0.0,0.0,53,0.00,,SKC,0.00,VWS V14.01,2013-09-10 08:16:00,
2013-09-10 04:21:00,66.0,48.4,29.68,SSW,207,0.0,0.0,53,0.00,,SKC,0.00,VWS V14.01,2013-09-10 08:21:00,
2013-09-10 04:26:00,66.0,48.9,29.68,SSW,207,0.0,0.0,54,0.00,,SKC,0.00,VWS V14.01,2013-09-10 08:26:00,
2013-09-10 04:31:00,66.0,48.9,29.68,SSW,207,0.0,0.0,54,0.00,,SKC,0.00,VWS V14.01,2013-09-10 08:31:00,
2013-09-10 04:36:00,66.0,48.9,29.68,SSW,206,0.0,0.0,54,0.00,,SKC,0.00,VWS V14.01,2013-09-10 08:36:00,
2013-09-10 04:41:00,66.0,48.9,29.68,SSW,206,0.0,0.0,54,0.00,,SKC,0.00,VWS V14.01,2013-09-10 08:41:00,
2013-09-10 04:46:00,66.0,48.9,29.68,SSW,206,0.0,0.0,54,0.00,,SKC,0.00,VWS V14.01,2013-09-10 08:46:00,
2013-09-10 04:51:00,66.0,49.4,29.68,SSW,206,0.0,0.0,55,0.00,,SKC,0.00,VWS V14.01,2013-09-10 08:51:00,
2013-09-10 04:56:00,65.8,49.2,29.68,SSW,206,0.0,0.0,55,0.00,,SKC,0.00,VWS V14.01,2013-09-10 08:56:00,
2013-09-10 05:01:00,65.8,49.2,29.68,SSW,206,0.0,0.0,55,0.00,,SKC,0.00,VWS V14.01,2013-09-10 09:01:00,
2013-09-10 05:06:00,65.7,49.1,29.68,SSW,206,0.0,0.0,55,0.00,,SKC,0.00,VWS V14.01,2013-09-10 09:06:00,
2013-09-10 05:11:00,65.7,49.6,29.68,SSW,206,0.0,0.0,56,0.00,,SKC,0.00,VWS V14.01,2013-09-10 09:11:00,
2013-09-10 05:16:00,65.7,50.0,29.68,SSW,206,0.0,0.0,57,0.00,,SKC,0.00,VWS V14.01,2013-09-10 09:16:00,
2013-09-10 05:21:00,65.7,50.0,29.68,SSW,206,0.0,0.0,57,0.00,,SKC,0.00,VWS V14.01,2013-09-10 09:21:00,
2013-09-10 05:26:00,65.5,50.3,29.68,SSW,206,0.0,0.0,58,0.00,,SKC,0.00,VWS V14.01,2013-09-10 09:26:00,
2013-09-10 05:31:00,65.5,51.2,29.68,SSW,206,0.0,0.0,60,0.00,,SKC,0.00,VWS V14.01,2013-09-10 09:31:00,
2013-09-10 05:36:00,65.5,51.2,29.68,SSW,206,0.0,0.0,60,0.00,,SKC,0.00,VWS V14.01,2013-09-10 09:36:00,
2013-09-10 05:41:00,65.5,51.7,29.68,SSW,206,0.0,0.0,61,0.00,,SKC,0.00,VWS V14.01,2013-09-10 09:41:00,
2013-09-10 05:45:00,65.5,51.7,29.68,SSW,206,0.0,0.0,61,0.00,,SKC,0.00,VWS V14.01,2013-09-10 09:45:00,
2013-09-10 05:50:00,65.5,52.1,29.68,SSW,206,0.0,0.0,62,0.00,,SKC,0.00,VWS V14.01,2013-09-10 09:50:00,
2013-09-10 05:55:00,65.5,52.6,29.68,SSW,206,0.0,0.0,63,0.00,,SKC,0.00,VWS V14.01,2013-09-10 09:55:00,
2013-09-10 06:00:00,65.5,52.6,29.68,SSW,206,0.0,0.0,63,0.00,,SKC,0.00,VWS V14.01,2013-09-10 10:00:00,
2013-09-10 06:05:00,65.5,53.0,29.68,SSW,206,0.0,0.0,64,0.00,,SKC,0.00,VWS V14.01,2013-09-10 10:05:00,
2013-09-10 06:10:00,65.5,53.4,29.68,SSW,206,0.0,0.0,65,0.00,,SKC,0.00,VWS V14.01,2013-09-10 10:10:00,
2013-09-10 06:15:00,65.5,53.8,29.68,SSE,158,0.0,0.0,66,0.00,,SKC,0.00,VWS V14.01,2013-09-10 10:15:00,
2013-09-10 06:20:00,65.5,53.8,29.68,SSE,158,0.0,0.0,66,0.00,,SKC,0.00,VWS V14.01,2013-09-10 10:20:00,
2013-09-10 06:25:00,65.5,54.2,29.68,SSE,158,0.0,0.0,67,0.00,,SKC,0.00,VWS V14.01,2013-09-10 10:25:00,
2013-09-10 06:30:00,65.5,54.7,29.68,SSE,158,0.0,0.0,68,0.00,,SKC,0.00,VWS V14.01,2013-09-10 10:30:00,
2013-09-10 06:35:00,65.5,54.7,29.68,SSE,158,0.0,0.0,68,0.00,,SKC,0.00,VWS V14.01,2013-09-10 10:35:00,
2013-09-10 06:40:00,65.5,55.0,29.68,SSE,158,0.0,0.0,69,0.00,,SKC,0.00,VWS V14.01,2013-09-10 10:40:00,
2013-09-10 06:45:00,65.5,55.0,29.68,SSE,158,0.0,0.0,69,0.00,,SKC,0.00,VWS V14.01,2013-09-10 10:45:00,
2013-09-10 06:50:00,65.5,55.5,29.68,SSE,158,0.0,0.0,70,0.00,,SKC,0.00,VWS V14.01,2013-09-10 10:50:00,
2013-09-10 06:55:00,65.5,55.8,29.68,SSE,158,0.0,0.0,71,0.00,,SKC,0.00,VWS V14.01,2013-09-10 10:55:00,
2013-09-10 07:00:00,65.7,56.4,29.68,SSE,158,0.0,0.0,72,0.00,,SKC,0.00,VWS V14.01,2013-09-10 11:00:00,
2013-09-10 07:05:00,65.7,56.4,29.68,SSE,158,0.0,0.0,72,0.00,,SKC,0.00,VWS V14.01,2013-09-10 11:05:00,
2013-09-10 07:10:00,65.7,56.4,29.68,SSE,158,0.0,0.0,72,0.00,,SKC,0.00,VWS V14.01,2013-09-10 11:10:00,
2013-09-10 07:15:00,65.7,56.8,29.68,SSE,158,0.0,0.0,73,0.00,,SKC,0.00,VWS V14.01,2013-09-10 11:15:00,
2013-09-10 07:20:00,65.7,57.2,29.71,SSE,158,0.0,0.0,74,0.00,,SKC,0.00,VWS V14.01,2013-09-10 11:20:00,
2013-09-10 07:25:00,65.8,57.3,29.71,SSE,158,0.0,0.0,74,0.00,,SKC,0.00,VWS V14.01,2013-09-10 11:25:00,
2013-09-10 07:30:00,65.8,57.3,29.71,SSE,158,0.0,0.0,74,0.00,,SKC,0.00,VWS V14.01,2013-09-10 11:30:00,
2013-09-10 07:35:00,65.8,57.7,29.68,SSE,168,0.0,0.0,75,0.00,,SKC,0.00,VWS V14.01,2013-09-10 11:35:00,
2013-09-10 07:40:00,65.8,57.7,29.68,SSE,168,0.0,0.0,75,0.00,,SKC,0.00,VWS V14.01,2013-09-10 11:40:00,
2013-09-10 07:45:00,66.0,57.9,29.68,SSE,168,0.0,0.0,75,0.00,,SKC,0.00,VWS V14.01,2013-09-10 11:45:00,
2013-09-10 07:50:00,66.0,58.2,29.68,SSE,168,0.0,0.0,76,0.00,,SKC,0.00,VWS V14.01,2013-09-10 11:50:00,
2013-09-10 07:55:00,66.0,58.2,29.68,SSE,168,0.0,0.0,76,0.00,,SKC,0.00,VWS V14.01,2013-09-10 11:55:00,
2013-09-10 08:00:00,66.0,58.2,29.68,SSE,168,0.0,0.0,76,0.00,,SKC,0.00,VWS V14.01,2013-09-10 12:00:00,
2013-09-10 08:05:00,66.0,58.2,29.68,South,175,0.0,0.0,76,0.00,,SKC,0.00,VWS V14.01,2013-09-10 12:05:00,
2013-09-10 08:10:00,66.2,58.4,29.68,WSW,257,0.0,0.0,76,0.00,,SKC,0.00,VWS V14.01,2013-09-10 12:10:00,
2013-09-10 08:15:00,66.2,58.4,29.68,WSW,242,0.0,0.0,76,0.00,,SKC,0.00,VWS V14.01,2013-09-10 12:15:00,
2013-09-10 08:20:00,66.4,59.0,29.68,WSW,242,0.0,0.0,77,0.00,,SKC,0.00,VWS V14.01,2013-09-10 12:20:00,
2013-09-10 08:25:00,66.4,59.0,29.68,WSW,242,0.0,0.0,77,0.00,,SKC,0.00,VWS V14.01,2013-09-10 12:25:00,
2013-09-10 08:30:00,66.6,59.1,29.68,WSW,242,0.0,0.0,77,0.00,,SKC,0.00,VWS V14.01,2013-09-10 12:30:00,
2013-09-10 08:35:00,66.6,59.1,29.68,WSW,242,0.0,0.0,77,0.00,,SKC,0.00,VWS V14.01,2013-09-10 12:35:00,
2013-09-10 08:40:00,66.6,59.5,29.68,WSW,242,0.0,0.0,78,0.00,,SKC,0.00,VWS V14.01,2013-09-10 12:40:00,
2013-09-10 08:45:00,66.7,59.7,29.68,WSW,242,0.0,0.0,78,0.00,,SKC,0.00,VWS V14.01,2013-09-10 12:45:00,
2013-09-10 08:50:00,66.9,59.8,29.71,WSW,241,0.0,0.0,78,0.00,,SKC,0.00,VWS V14.01,2013-09-10 12:50:00,
2013-09-10 08:55:00,67.1,60.0,29.71,WSW,241,0.0,0.0,78,0.00,,SKC,0.00,VWS V14.01,2013-09-10 12:55:00,
2013-09-10 09:00:00,67.1,60.4,29.71,WSW,241,0.0,0.0,79,0.00,,SKC,0.00,VWS V14.01,2013-09-10 13:00:00,
2013-09-10 09:05:00,67.3,60.5,29.71,WSW,241,0.0,0.0,79,0.00,,SKC,0.00,VWS V14.01,2013-09-10 13:05:00,
2013-09-10 09:10:00,67.3,60.5,29.71,WSW,241,0.0,0.0,79,0.00,,SKC,0.00,VWS V14.01,2013-09-10 13:10:00,
2013-09-10 09:15:00,67.5,60.7,29.71,WSW,241,0.0,0.0,79,0.00,,SKC,0.00,VWS V14.01,2013-09-10 13:15:00,
2013-09-10 09:20:00,67.6,60.9,29.71,WSW,241,0.0,0.0,79,0.00,,SKC,0.00,VWS V14.01,2013-09-10 13:20:00,
2013-09-10 09:25:00,67.8,61.1,29.71,WSW,241,0.0,0.0,79,0.00,,SKC,0.00,VWS V14.01,2013-09-10 13:25:00,
2013-09-10 09:30:00,68.0,61.2,29.71,WSW,241,0.0,0.0,79,0.00,,SKC,0.00,VWS V14.01,2013-09-10 13:30:00,
2013-09-10 09:35:00,68.2,61.4,29.71,WSW,241,0.0,0.0,79,0.00,,SKC,0.00,VWS V14.01,2013-09-10 13:35:00,
2013-09-10 09:40:00,68.4,61.6,29.71,WSW,241,0.0,0.0,79,0.00,,SKC,0.00,VWS V14.01,2013-09-10 13:40:00,
2013-09-10 09:45:00,68.4,61.6,29.71,WSW,241,0.0,0.0,79,0.00,,SKC,0.00,VWS V14.01,2013-09-10 13:45:00,
2013-09-10 09:50:00,68.7,62.3,29.71,WSW,241,0.0,0.0,80,0.00,,SKC,0.00,VWS V14.01,2013-09-10 13:50:00,
2013-09-10 09:55:00,68.9,62.5,29.71,WSW,241,0.0,0.0,80,0.00,,SKC,0.00,VWS V14.01,2013-09-10 13:55:00,
2013-09-10 10:00:00,69.3,62.8,29.71,WSW,241,0.0,0.0,80,0.00,,SKC,0.00,VWS V14.01,2013-09-10 14:00:00,
2013-09-10 10:05:00,69.4,63.0,29.71,WSW,241,0.0,0.0,80,0.00,,SKC,0.00,VWS V14.01,2013-09-10 14:05:00,
2013-09-10 10:10:00,69.6,63.2,29.71,SW,236,0.0,2.7,80,0.00,,SKC,0.00,VWS V14.01,2013-09-10 14:10:00,
2013-09-10 10:15:00,69.8,63.0,29.71,WSW,237,0.0,0.0,79,0.00,,SKC,0.00,VWS V14.01,2013-09-10 14:15:00,
2013-09-10 10:20:00,70.2,63.3,29.71,ESE,117,0.0,0.0,79,0.00,,SKC,0.00,VWS V14.01,2013-09-10 14:20:00,
2013-09-10 10:25:00,70.3,63.2,29.71,ESE,104,0.0,0.0,78,0.00,,SKC,0.00,VWS V14.01,2013-09-10 14:25:00,
2013-09-10 10:30:00,70.5,63.0,29.71,ESE,104,0.0,0.0,77,0.00,,SKC,0.00,VWS V14.01,2013-09-10 14:30:00,
2013-09-10 10:35:00,70.9,63.3,29.71,ESE,104,0.0,0.0,77,0.00,,SKC,0.00,VWS V14.01,2013-09-10 14:35:00,
2013-09-10 10:40:00,70.9,62.6,29.71,ESE,104,0.0,0.0,75,0.00,,SKC,0.00,VWS V14.01,2013-09-10 14:40:00,
2013-09-10 10:45:00,71.1,63.1,29.71,ESE,104,0.0,0.0,76,0.00,,SKC,0.00,VWS V14.01,2013-09-10 14:45:00,
2013-09-10 10:50:00,71.2,63.3,29.71,ESE,104,0.0,0.0,76,0.00,,SKC,0.00,VWS V14.01,2013-09-10 14:50:00,
2013-09-10 10:55:00,71.2,62.9,29.71,ESE,104,0.0,0.0,75,0.00,,SKC,0.00,VWS V14.01,2013-09-10 14:55:00,
2013-09-10 11:00:00,71.2,62.2,29.71,ESE,104,0.0,0.0,73,0.00,,SKC,0.00,VWS V14.01,2013-09-10 15:00:00,
2013-09-10 11:05:00,71.2,62.2,29.71,SE,126,0.0,0.0,73,0.00,,SKC,0.00,VWS V14.01,2013-09-10 15:05:00,
2013-09-10 11:10:00,71.4,62.7,29.71,SE,126,0.0,0.0,74,0.00,,SKC,0.00,VWS V14.01,2013-09-10 15:10:00,
2013-09-10 11:15:00,71.4,62.3,29.71,SE,126,0.0,0.0,73,0.00,,SKC,0.00,VWS V14.01,2013-09-10 15:15:00,
2013-09-10 11:20:00,71.6,62.5,29.71,SE,126,0.0,0.0,73,0.00,,SKC,0.00,VWS V14.01,2013-09-10 15:20:00,
2013-09-10 11:25:00,71.6,62.1,29.71,SE,126,0.0,0.0,72,0.00,,SKC,0.00,VWS V14.01,2013-09-10 15:25:00,
2013-09-10 11:30:00,71.8,62.3,29.71,SE,126,0.0,0.0,72,0.00,,SKC,0.00,VWS V14.01,2013-09-10 15:30:00,
2013-09-10 11:35:00,72.1,63.0,29.71,SE,126,0.0,0.0,73,0.00,,SKC,0.00,VWS V14.01,2013-09-10 15:35:00,
2013-09-10 11:40:00,72.5,62.6,29.71,SE,126,0.0,0.0,71,0.00,,SKC,0.00,VWS V14.01,2013-09-10 15:40:00,
2013-09-10 11:45:00,72.7,61.9,29.71,SE,126,0.0,0.0,69,0.00,,SKC,0.00,VWS V14.01,2013-09-10 15:45:00,
2013-09-10 11:50:00,72.7,59.8,29.68,SE,126,0.0,0.0,64,0.00,,SKC,0.00,VWS V14.01,2013-09-10 15:50:00,
2013-09-10 11:55:00,73.0,60.6,29.68,SE,126,0.0,0.0,65,0.00,,SKC,0.00,VWS V14.01,2013-09-10 15:55:00,
2013-09-10 12:00:00,73.4,60.5,29.68,SE,126,0.0,0.0,64,0.00,,SKC,0.00,VWS V14.01,2013-09-10 16:00:00,
2013-09-10 12:05:00,73.4,58.7,29.68,SE,126,0.0,0.0,60,0.00,,SKC,0.00,VWS V14.01,2013-09-10 16:05:00,
2013-09-10 12:10:00,73.8,59.0,29.68,SE,126,0.0,0.0,60,0.00,,SKC,0.00,VWS V14.01,2013-09-10 16:10:00,
2013-09-10 12:15:00,73.8,58.5,29.68,SE,126,0.0,0.0,59,0.00,,SKC,0.00,VWS V14.01,2013-09-10 16:15:00,
2013-09-10 12:20:00,73.6,55.9,29.68,SE,126,0.0,0.0,54,0.00,,SKC,0.00,VWS V14.01,2013-09-10 16:20:00,
2013-09-10 12:25:00,73.8,55.6,29.68,SE,126,0.0,0.0,53,0.00,,SKC,0.00,VWS V14.01,2013-09-10 16:25:00,
2013-09-10 12:30:00,73.9,56.3,29.68,SE,126,0.0,0.0,54,0.00,,SKC,0.00,VWS V14.01,2013-09-10 16:30:00,
2013-09-10 12:35:00,74.3,55.6,29.68,South,170,0.0,0.0,52,0.00,,SKC,0.00,VWS V14.01,2013-09-10 16:35:00,
2013-09-10 12:40:00,74.7,55.3,29.68,SSE,152,0.0,0.0,51,0.00,,SKC,0.00,VWS V14.01,2013-09-10 16:40:00,
2013-09-10 12:45:00,75.0,55.7,29.68,SSE,157,4.8,4.8,51,0.00,,SKC,0.00,VWS V14.01,2013-09-10 16:45:00,
2013-09-10 12:50:00,75.4,53.2,29.65,East,98,0.0,0.0,46,0.00,,SKC,0.00,VWS V14.01,2013-09-10 16:50:00,
2013-09-10 12:55:00,75.7,52.9,29.65,SSE,164,0.0,2.7,45,0.00,,SKC,0.00,VWS V14.01,2013-09-10 16:55:00,
2013-09-10 13:00:00,76.1,52.6,29.65,West,270,0.0,0.0,44,0.00,,SKC,0.00,VWS V14.01,2013-09-10 17:00:00,
2013-09-10 13:05:00,76.3,52.2,29.65,NNE,25,4.8,4.8,43,0.00,,SKC,0.00,VWS V14.01,2013-09-10 17:05:00,
2013-09-10 13:10:00,76.5,52.3,29.65,SW,222,4.8,4.8,43,0.00,,SKC,0.00,VWS V14.01,2013-09-10 17:10:00,
2013-09-10 13:15:00,76.8,52.7,29.65,South,182,4.0,4.0,43,0.00,,SKC,0.00,VWS V14.01,2013-09-10 17:15:00,
2013-09-10 13:20:00,77.0,51.5,29.65,South,177,6.4,6.4,41,0.00,,SKC,0.00,VWS V14.01,2013-09-10 17:20:00,
2013-09-10 13:25:00,77.4,52.5,29.65,SSE,147,0.0,0.0,42,0.00,,SKC,0.00,VWS V14.01,2013-09-10 17:25:00,
2013-09-10 13:30:00,78.1,53.2,29.65,ESE,114,0.0,0.0,42,0.00,,SKC,0.00,VWS V14.01,2013-09-10 17:30:00,
2013-09-10 13:35:00,78.6,52.3,29.62,ESE,114,0.0,2.2,40,0.00,,SKC,0.00,VWS V14.01,2013-09-10 17:35:00,
2013-09-10 13:40:00,79.0,50.5,29.62,East,93,5.6,5.6,37,0.00,,SKC,0.00,VWS V14.01,2013-09-10 17:40:00,
2013-09-10 13:45:00,79.3,50.8,29.62,SSE,164,5.6,5.6,37,0.00,,SKC,0.00,VWS V14.01,2013-09-10 17:45:00,
2013-09-10 13:50:00,79.5,50.2,29.62,East,100,6.4,6.4,36,0.00,,SKC,0.00,VWS V14.01,2013-09-10 17:50:00,
2013-09-10 13:55:00,79.9,50.6,29.62,SSE,168,0.0,0.0,36,0.00,,SKC,0.00,VWS V14.01,2013-09-10 17:55:00,
2013-09-10 14:00:00,80.1,50.0,29.62,SSW,208,0.0,0.0,35,0.00,,SKC,0.00,VWS V14.01,2013-09-10 18:00:00,
2013-09-10 14:05:00,80.4,50.3,29.62,South,178,0.0,2.7,35,0.00,,SKC,0.00,VWS V14.01,2013-09-10 18:05:00,
2013-09-10 14:10:00,80.8,49.8,29.62,SSE,156,4.8,4.8,34,0.00,,SKC,0.00,VWS V14.01,2013-09-10 18:10:00,
2013-09-10 14:15:00,81.3,50.3,29.62,South,171,7.2,7.2,34,0.00,,SKC,0.00,VWS V14.01,2013-09-10 18:15:00,
2013-09-10 14:20:00,81.9,50.0,29.62,SSE,161,0.0,0.0,33,0.00,,SKC,0.00,VWS V14.01,2013-09-10 18:20:00,
2013-09-10 14:25:00,82.2,49.5,29.62,SE,140,4.8,4.8,32,0.00,,SKC,0.00,VWS V14.01,2013-09-10 18:25:00,
2013-09-10 14:30:00,82.6,49.8,29.62,ESE,105,4.8,4.8,32,0.00,,SKC,0.00,VWS V14.01,2013-09-10 18:30:00,
2013-09-10 14:35:00,83.1,50.2,29.62,SSE,149,0.0,0.0,32,0.00,,SKC,0.00,VWS V14.01,2013-09-10 18:35:00,
2013-09-10 14:40:00,83.5,49.7,29.62,SSE,164,4.0,4.0,31,0.00,,SKC,0.00,VWS V14.01,2013-09-10 18:40:00,
2013-09-10 14:45:00,83.7,49.0,29.62,ESE,123,4.0,4.0,30,0.00,,SKC,0.00,VWS V14.01,2013-09-10 18:45:00,
2013-09-10 14:50:00,83.7,49.8,29.62,SE,140,4.8,4.8,31,0.00,,SKC,0.00,VWS V14.01,2013-09-10 18:50:00,
2013-09-10 14:55:00,83.7,49.0,29.62,SE,138,0.0,3.1,30,0.00,,SKC,0.00,VWS V14.01,2013-09-10 18:55:00,
2013-09-10 15:00:00,83.7,49.0,29.62,ESE,113,4.0,4.0,30,0.00,,SKC,0.00,VWS V14.01,2013-09-10 19:00:00,
2013-09-10 15:05:00,84.0,49.3,29.62,NNW,328,4.0,4.0,30,0.00,,SKC,0.00,VWS V14.01,2013-09-10 19:05:00,
2013-09-10 15:10:00,84.4,49.6,29.62,SSE,166,4.8,4.8,30,0.00,,SKC,0.00,VWS V14.01,2013-09-10 19:10:00,
2013-09-10 15:14:00,84.7,49.9,29.62,SSE,152,4.8,4.8,30,0.00,,SKC,0.00,VWS V14.01,2013-09-10 19:14:00,
2013-09-10 15:19:00,84.9,50.1,29.62,SSW,209,0.0,0.0,30,0.00,,SKC,0.00,VWS V14.01,2013-09-10 19:19:00,
2013-09-10 15:24:00,85.1,49.3,29.62,SSW,196,4.0,4.0,29,0.00,,SKC,0.00,VWS V14.01,2013-09-10 19:24:00,
2013-09-10 15:29:00,85.3,49.5,29.62,SSW,211,0.0,0.0,29,0.00,,SKC,0.00,VWS V14.01,2013-09-10 19:29:00,
2013-09-10 15:34:00,85.6,49.8,29.62,SSE,154,0.0,0.0,29,0.00,,SKC,0.00,VWS V14.01,2013-09-10 19:34:00,
2013-09-10 15:39:00,85.8,49.9,29.62,SSE,163,0.0,0.0,29,0.00,,SKC,0.00,VWS V14.01,2013-09-10 19:39:00,
2013-09-10 15:44:00,86.0,50.1,29.62,SSW,205,0.0,0.0,29,0.00,,SKC,0.00,VWS V14.01,2013-09-10 19:44:00,
2013-09-10 15:49:00,85.8,49.9,29.62,South,180,4.8,4.8,29,0.00,,SKC,0.00,VWS V14.01,2013-09-10 19:49:00,
2013-09-10 15:54:00,85.8,49.9,29.62,NW,319,4.0,4.0,29,0.00,,SKC,0.00,VWS V14.01,2013-09-10 19:54:00,
2013-09-10 15:59:00,86.0,50.1,29.62,SE,129,0.0,0.0,29,0.00,,SKC,0.00,VWS V14.01,2013-09-10 19:59:00,
2013-09-10 16:04:00,86.2,50.2,29.62,West,266,0.0,2.7,29,0.00,,SKC,0.00,VWS V14.01,2013-09-10 20:04:00,
2013-09-10 16:09:00,86.2,50.2,29.62,South,175,4.0,4.0,29,0.00,,SKC,0.00,VWS V14.01,2013-09-10 20:09:00,
2013-09-10 16:14:00,86.0,50.1,29.62,SSE,158,0.0,2.7,29,0.00,,SKC,0.00,VWS V14.01,2013-09-10 20:14:00,
2013-09-10 16:19:00,86.0,50.1,29.62,SSE,149,0.0,0.0,29,0.00,,SKC,0.00,VWS V14.01,2013-09-10 20:19:00,
2013-09-10 16:24:00,86.0,50.1,29.59,SE,134,0.0,2.2,29,0.00,,SKC,0.00,VWS V14.01,2013-09-10 20:24:00,
2013-09-10 16:29:00,86.0,50.1,29.59,South,171,0.0,0.0,29,0.00,,SKC,0.00,VWS V14.01,2013-09-10 20:29:00,
2013-09-10 16:34:00,86.0,50.1,29.59,SSE,163,0.0,2.7,29,0.00,,SKC,0.00,VWS V14.01,2013-09-10 20:34:00,
2013-09-10 16:39:00,86.0,50.1,29.59,SSE,154,0.0,3.6,29,0.00,,SKC,0.00,VWS V14.01,2013-09-10 20:39:00,
2013-09-10 16:44:00,85.8,49.9,29.59,ESE,106,0.0,0.0,29,0.00,,SKC,0.00,VWS V14.01,2013-09-10 20:44:00,
2013-09-10 16:49:00,85.6,50.7,29.59,SE,127,0.0,0.0,30,0.00,,SKC,0.00,VWS V14.01,2013-09-10 20:49:00,
2013-09-10 16:54:00,85.8,49.9,29.59,ESE,116,0.0,2.7,29,0.00,,SKC,0.00,VWS V14.01,2013-09-10 20:54:00,
2013-09-10 16:59:00,85.6,49.8,29.59,SSE,162,0.0,0.0,29,0.00,,SKC,0.00,VWS V14.01,2013-09-10 20:59:00,
2013-09-10 17:04:00,85.3,50.4,29.59,South,178,0.0,0.0,30,0.00,,SKC,0.00,VWS V14.01,2013-09-10 21:04:00,
2013-09-10 17:09:00,85.1,50.2,29.59,WNW,297,6.4,6.4,30,0.00,,SKC,0.00,VWS V14.01,2013-09-10 21:09:00,
2013-09-10 17:14:00,84.7,49.9,29.59,ESE,111,5.6,5.6,30,0.00,,SKC,0.00,VWS V14.01,2013-09-10 21:14:00,
2013-09-10 17:19:00,84.6,49.8,29.59,SSE,168,0.0,2.2,30,0.00,,SKC,0.00,VWS V14.01,2013-09-10 21:19:00,
2013-09-10 17:24:00,84.4,49.6,29.59,South,189,0.0,0.0,30,0.00,,SKC,0.00,VWS V14.01,2013-09-10 21:24:00,
2013-09-10 17:29:00,84.2,49.4,29.59,SW,225,0.0,0.0,30,0.00,,SKC,0.00,VWS V14.01,2013-09-10 21:29:00,
2013-09-10 17:34:00,84.0,50.2,29.59,ESE,102,4.0,4.0,31,0.00,,SKC,0.00,VWS V14.01,2013-09-10 21:34:00,
2013-09-10 17:39:00,83.8,50.0,29.59,East,94,0.0,0.0,31,0.00,,SKC,0.00,VWS V14.01,2013-09-10 21:39:00,
2013-09-10 17:44:00,83.8,50.9,29.59,ESE,102,0.0,0.0,32,0.00,,SKC,0.00,VWS V14.01,2013-09-10 21:44:00,
2013-09-10 17:49:00,83.7,50.7,29.59,ESE,118,0.0,0.0,32,0.00,,SKC,0.00,VWS V14.01,2013-09-10 21:49:00,
2013-09-10 17:54:00,83.5,50.5,29.62,SW,224,0.0,0.0,32,0.00,,SKC,0.00,VWS V14.01,2013-09-10 21:54:00,
2013-09-10 17:59:00,83.3,50.4,29.62,SSE,157,0.0,0.0,32,0.00,,SKC,0.00,VWS V14.01,2013-09-10 21:59:00,
2013-09-10 18:04:00,83.3,50.4,29.62,SE,127,0.0,0.0,32,0.00,,SKC,0.00,VWS V14.01,2013-09-10 22:04:00,
2013-09-10 18:09:00,83.1,51.1,29.62,SE,127,0.0,0.0,33,0.00,,SKC,0.00,VWS V14.01,2013-09-10 22:09:00,
2013-09-10 18:14:00,82.9,50.9,29.62,SSE,151,0.0,0.0,33,0.00,,SKC,0.00,VWS V14.01,2013-09-10 22:14:00,
2013-09-10 18:19:00,82.8,50.8,29.62,SSE,151,0.0,0.0,33,0.00,,SKC,0.00,VWS V14.01,2013-09-10 22:19:00,
2013-09-10 18:24:00,82.8,50.8,29.62,SSE,151,0.0,0.0,33,0.00,,SKC,0.00,VWS V14.01,2013-09-10 22:24:00,
2013-09-10 18:29:00,82.6,51.4,29.62,SSE,151,0.0,0.0,34,0.00,,SKC,0.00,VWS V14.01,2013-09-10 22:29:00,
2013-09-10 18:34:00,82.4,51.2,29.62,SSE,151,0.0,0.0,34,0.00,,SKC,0.00,VWS V14.01,2013-09-10 22:34:00,
2013-09-10 18:39:00,82.4,51.2,29.62,SSE,151,0.0,0.0,34,0.00,,SKC,0.00,VWS V14.01,2013-09-10 22:39:00,
2013-09-10 18:44:00,82.2,51.9,29.62,SSE,151,0.0,0.0,35,0.00,,SKC,0.00,VWS V14.01,2013-09-10 22:44:00,
2013-09-10 18:49:00,82.0,52.5,29.62,East,96,0.0,0.0,36,0.00,,SKC,0.00,VWS V14.01,2013-09-10 22:49:00,
2013-09-10 18:54:00,81.9,52.3,29.62,ESE,122,0.0,0.0,36,0.00,,SKC,0.00,VWS V14.01,2013-09-10 22:54:00,
2013-09-10 18:59:00,81.7,52.9,29.62,ESE,122,0.0,0.0,37,0.00,,SKC,0.00,VWS V14.01,2013-09-10 22:59:00,
2013-09-10 19:04:00,81.3,52.6,29.62,ESE,122,0.0,0.0,37,0.00,,SKC,0.00,VWS V14.01,2013-09-10 23:04:00,
2013-09-10 19:09:00,81.1,52.4,29.62,North,353,0.0,0.0,37,0.00,,SKC,0.00,VWS V14.01,2013-09-10 23:09:00,
2013-09-10 19:14:00,81.0,52.3,29.62,North,353,0.0,0.0,37,0.00,,SKC,0.00,VWS V14.01,2013-09-10 23:14:00,
2013-09-10 19:19:00,80.8,52.8,29.62,North,353,0.0,0.0,38,0.00,,SKC,0.00,VWS V14.01,2013-09-10 23:19:00,
2013-09-10 19:24:00,80.6,52.7,29.62,North,353,0.0,0.0,38,0.00,,SKC,0.00,VWS V14.01,2013-09-10 23:24:00,
2013-09-10 19:29:00,80.4,53.2,29.62,North,353,0.0,0.0,39,0.00,,SKC,0.00,VWS V14.01,2013-09-10 23:29:00,
2013-09-10 19:34:00,80.2,53.8,29.62,North,353,0.0,0.0,40,0.00,,SKC,0.00,VWS V14.01,2013-09-10 23:34:00,
2013-09-10 19:39:00,79.9,53.4,29.62,North,353,0.0,0.0,40,0.00,,SKC,0.00,VWS V14.01,2013-09-10 23:39:00,
2013-09-10 19:44:00,79.7,53.9,29.62,North,353,0.0,0.0,41,0.00,,SKC,0.00,VWS V14.01,2013-09-10 23:44:00,
2013-09-10 19:49:00,79.5,53.8,29.62,North,353,0.0,0.0,41,0.00,,SKC,0.00,VWS V14.01,2013-09-10 23:49:00,
2013-09-10 19:54:00,79.3,53.6,29.62,North,353,0.0,0.0,41,0.00,,SKC,0.00,VWS V14.01,2013-09-10 23:54:00,
2013-09-10 19:59:00,79.3,54.3,29.62,West,275,0.0,0.0,42,0.00,,SKC,0.00,VWS V14.01,2013-09-10 23:59:00,
2013-09-10 20:04:00,79.2,54.1,29.62,West,275,0.0,0.0,42,0.00,,SKC,0.00,VWS V14.01,2013-09-11 00:04:00,
2013-09-10 20:09:00,79.0,54.0,29.62,West,275,0.0,0.0,42,0.00,,SKC,0.00,VWS V14.01,2013-09-11 00:09:00,
2013-09-10 20:14:00,78.8,53.8,29.62,West,275,0.0,0.0,42,0.00,,SKC,0.00,VWS V14.01,2013-09-11 00:14:00,
2013-09-10 20:19:00,78.6,54.3,29.62,West,275,0.0,0.0,43,0.00,,SKC,0.00,VWS V14.01,2013-09-11 00:19:00,
2013-09-10 20:24:00,78.4,54.1,29.65,West,275,0.0,0.0,43,0.00,,SKC,0.00,VWS V14.01,2013-09-11 00:24:00,
2013-09-10 20:29:00,78.3,54.0,29.65,West,275,0.0,0.0,43,0.00,,SKC,0.00,VWS V14.01,2013-09-11 00:29:00,
2013-09-10 20:34:00,78.1,54.4,29.65,West,275,0.0,0.0,44,0.00,,SKC,0.00,VWS V14.01,2013-09-11 00:34:00,
2013-09-10 20:39:00,77.9,54.9,29.65,West,275,0.0,0.0,45,0.00,,SKC,0.00,VWS V14.01,2013-09-11 00:39:00,
2013-09-10 20:44:00,77.7,54.7,29.65,West,275,0.0,0.0,45,0.00,,SKC,0.00,VWS V14.01,2013-09-11 00:44:00,
2013-09-10 20:49:00,77.5,55.2,29.65,West,275,0.0,0.0,46,0.00,,SKC,0.00,VWS V14.01,2013-09-11 00:49:00,
2013-09-10 20:54:00,77.4,55.0,29.65,West,275,0.0,0.0,46,0.00,,SKC,0.00,VWS V14.01,2013-09-11 00:54:00,
2013-09-10 20:59:00,77.4,55.0,29.65,West,275,0.0,0.0,46,0.00,,SKC,0.00,VWS V14.01,2013-09-11 00:59:00,
2013-09-10 21:04:00,77.2,55.4,29.65,West,275,0.0,0.0,47,0.00,,SKC,0.00,VWS V14.01,2013-09-11 01:04:00,
2013-09-10 21:09:00,77.0,55.2,29.65,West,275,0.0,0.0,47,0.00,,SKC,0.00,VWS V14.01,2013-09-11 01:09:00,
2013-09-10 21:14:00,76.8,55.7,29.65,West,275,0.0,0.0,48,0.00,,SKC,0.00,VWS V14.01,2013-09-11 01:14:00,
2013-09-10 21:19:00,76.6,55.5,29.65,West,275,0.0,0.0,48,0.00,,SKC,0.00,VWS V14.01,2013-09-11 01:19:00,
2013-09-10 21:24:00,76.5,55.9,29.65,West,275,0.0,0.0,49,0.00,,SKC,0.00,VWS V14.01,2013-09-11 01:24:00,
2013-09-10 21:29:00,76.5,55.9,29.65,West,275,0.0,0.0,49,0.00,,SKC,0.00,VWS V14.01,2013-09-11 01:29:00,
2013-09-10 21:34:00,76.3,56.3,29.65,West,275,0.0,0.0,50,0.00,,SKC,0.00,VWS V14.01,2013-09-11 01:34:00,
2013-09-10 21:39:00,76.1,56.1,29.65,West,275,0.0,0.0,50,0.00,,SKC,0.00,VWS V14.01,2013-09-11 01:39:00,
2013-09-10 21:44:00,76.1,56.7,29.65,West,275,0.0,0.0,51,0.00,,SKC,0.00,VWS V14.01,2013-09-11 01:44:00,
2013-09-10 21:49:00,75.9,57.0,29.65,West,275,0.0,0.0,52,0.00,,SKC,0.00,VWS V14.01,2013-09-11 01:49:00,
2013-09-10 21:54:00,75.9,57.0,29.65,West,275,0.0,0.0,52,0.00,,SKC,0.00,VWS V14.01,2013-09-11 01:54:00,
2013-09-10 21:59:00,75.9,57.6,29.65,West,275,0.0,0.0,53,0.00,,SKC,0.00,VWS V14.01,2013-09-11 01:59:00,
2013-09-10 22:04:00,75.9,57.6,29.65,West,275,0.0,0.0,53,0.00,,SKC,0.00,VWS V14.01,2013-09-11 02:04:00,
2013-09-10 22:09:00,75.9,57.6,29.65,West,275,0.0,0.0,53,0.00,,SKC,0.00,VWS V14.01,2013-09-11 02:09:00,
2013-09-10 22:14:00,75.9,57.6,29.65,West,275,0.0,0.0,53,0.00,,SKC,0.00,VWS V14.01,2013-09-11 02:14:00,
2013-09-10 22:19:00,75.4,58.1,29.65,West,275,0.0,0.0,55,0.00,,SKC,0.00,VWS V14.01,2013-09-11 02:19:00,
2013-09-10 22:24:00,75.4,58.1,29.65,West,275,0.0,0.0,55,0.00,,SKC,0.00,VWS V14.01,2013-09-11 02:24:00,
2013-09-10 22:29:00,75.2,58.9,29.65,West,275,0.0,0.0,57,0.00,,SKC,0.00,VWS V14.01,2013-09-11 02:29:00,
2013-09-10 22:34:00,75.2,58.9,29.65,West,275,0.0,0.0,57,0.00,,SKC,0.00,VWS V14.01,2013-09-11 02:34:00,
2013-09-10 22:39:00,75.2,58.9,29.65,West,275,0.0,0.0,57,0.00,,SKC,0.00,VWS V14.01,2013-09-11 02:39:00,
2013-09-10 22:44:00,75.2,58.9,29.65,West,275,0.0,0.0,57,0.00,,SKC,0.00,VWS V14.01,2013-09-11 02:44:00,
2013-09-10 22:49:00,75.2,58.9,29.65,West,275,0.0,0.0,57,0.00,,SKC,0.00,VWS V14.01,2013-09-11 02:49:00,
2013-09-10 22:54:00,74.7,59.4,29.65,West,275,0.0,0.0,59,0.00,,SKC,0.00,VWS V14.01,2013-09-11 02:54:00,
2013-09-10 22:59:00,74.7,59.4,29.65,West,275,0.0,0.0,59,0.00,,SKC,0.00,VWS V14.01,2013-09-11 02:59:00,
2013-09-10 23:04:00,74.3,59.5,29.65,West,275,0.0,0.0,60,0.00,,SKC,0.00,VWS V14.01,2013-09-11 03:04:00,
2013-09-10 23:09:00,74.3,60.0,29.65,West,275,0.0,0.0,61,0.00,,SKC,0.00,VWS V14.01,2013-09-11 03:09:00,
2013-09-10 23:14:00,74.1,59.8,29.65,West,275,0.0,0.0,61,0.00,,SKC,0.00,VWS V14.01,2013-09-11 03:14:00,
2013-09-10 23:19:00,74.1,60.3,29.65,West,275,0.0,0.0,62,0.00,,SKC,0.00,VWS V14.01,2013-09-11 03:19:00,
2013-09-10 23:24:00,74.1,60.7,29.65,West,275,0.0,0.0,63,0.00,,SKC,0.00,VWS V14.01,2013-09-11 03:24:00,
2013-09-10 23:29:00,74.3,61.3,29.65,West,275,0.0,0.0,64,0.00,,SKC,0.00,VWS V14.01,2013-09-11 03:29:00,
2013-09-10 23:34:00,74.3,61.3,29.65,West,275,0.0,0.0,64,0.00,,SKC,0.00,VWS V14.01,2013-09-11 03:34:00,
2013-09-10 23:39:00,74.3,62.2,29.65,West,275,0.0,0.0,66,0.00,,SKC,0.00,VWS V14.01,2013-09-11 03:39:00,
2013-09-10 23:44:00,74.3,62.2,29.65,West,275,0.0,0.0,66,0.00,,SKC,0.00,VWS V14.01,2013-09-11 03:44:00,
2013-09-10 23:49:00,74.3,62.2,29.65,West,275,0.0,0.0,66,0.00,,SKC,0.00,VWS V14.01,2013-09-11 03:49:00,
2013-09-10 23:54:00,74.3,63.1,29.65,West,275,0.0,0.0,68,0.00,,SKC,0.00,VWS V14.01,2013-09-11 03:54:00,
2013-09-10 23:59:00,74.1,62.9,29.65,West,275,0.0,0.0,68,0.00,,SKC,0.00,VWS V14.01,2013-09-11 03:59:00,